Content
SEND FEEDBACK

Daily
Averages
Monthly
Summary
Saudi Arabia

BURAYDAH, SAUDI ARABIA


Home > Middle East > Saudi Arabia
Elevation: 2132 feet     Latitude: 26 18N     Longitude: 043 46E

WEATHER
 
SELECT A DAY
Number of Records: 174,200;   Date Range: 7/1/96 - 9/22/14
 
SHARE

PRINT THIS DATA

[ ← Previous Day ]
WEATHER ALMANAC - FEBRUARY 13, 2013
[ Next Day → ]
[ °C ]   °F
Weather ElementAverageHighLow
Temperature61.5 °F71 °F (3:00 pm)53.6 °F (5:00 am)
Dewpoint43.8 °F48.2 °F (12:00 am)39 °F (9:00 am)
Humidity50.9 %72 % (5:00 am)27 % (3:00 pm)
Barometer30.12 in30.18 in (8:00 am)30.03 in (3:00 am)
Wind Speed10 mph17.3 mph (1:00 am)
Weather ElementAverage
Visibility6 mi
Wind DirectionENE (51 °)

Weather ElementTotal
Precipitation---
Heating Degree Days2.7 (Base 65)
Growing Degree Days12.3 (Base 50)
Averaged from 31 records on February 13, 2013
WEATHER CONDITIONS BREAKOUT
WIND DIRECTION BREAKOUT
WEATHER BY HOUR - FEBRUARY 13, 2013
[ °C ]   °F
Local TimeTemperatureDewpointHumidityBarometerVisibilityWind DirectionWind SpeedGust SpeedPrecipitationEventsConditions
12:00 AM60.8 °F48.2 °F63 %30.06 inNNE (20°)13.8 mphClear
1:00 AM59.0 °F46.4 °F63 %30.06 inNNE (30°)17.3 mphClear
2:00 AM57.2 °F46.4 °F67 %30.06 inNNE (30°)13.8 mphClear
3:00 AM55.0 °F45.0 °F59 %30.03 in6.0 miWNW (300°)11.5 mph
3:00 AM55.4 °F44.6 °F67 %30.06 inNNE (30°)11.5 mphClear
4:00 AM55.4 °F44.6 °F67 %30.09 inNNE (30°)11.5 mphClear
5:00 AM53.6 °F44.6 °F72 %30.09 inNNE (30°)9.2 mphClear
6:00 AM53.6 °F42.8 °F67 %30.12 inNNE (20°)6.9 mphClear
6:00 AM54.0 °F43.0 °F56 %30.09 in6.0 miNNE (20°)6.9 mph
7:00 AM53.6 °F42.8 °F67 %30.15 inNNE (20°)6.9 mphClear
8:00 AM53.6 °F42.8 °F67 %30.18 inNNE (20°)6.9 mphClear
9:00 AM57.0 °F39.0 °F40 %30.15 in6.0 miNE (40°)9.2 mph
9:00 AM57.2 °F39.2 °F51 %30.18 inNE (40°)9.2 mphClear
10:00 AM62.6 °F41.0 °F45 %30.18 inNE (40°)13.8 mphClear
11:00 AM62.6 °F41.0 °F45 %30.18 inENE (60°)12.7 mphClear
12:00 PM66.2 °F42.8 °F43 %30.15 inNE (40°)9.2 mphClear
12:00 PM66.0 °F43.0 °F31 %30.11 in6.0 miNE (40°)9.2 mph
1:00 PM68.0 °F42.8 °F40 %30.12 inENE (60°)9.2 mphClear
2:00 PM69.8 °F44.6 °F40 %30.12 inNE (50°)11.5 mphClear
3:00 PM71.0 °F45.0 °F27 %30.05 in6.0 miNE (50°)9.2 mph
3:00 PM69.8 °F44.6 °F40 %30.09 inNE (50°)9.2 mphClear
4:00 PM69.8 °F44.6 °F40 %30.09 inNE (40°)9.2 mphClear
5:00 PM69.8 °F44.6 °F40 %30.09 inENE (60°)9.2 mphClear
6:00 PM66.2 °F44.6 °F46 %30.12 inNE (50°)9.2 mphClear
6:00 PM66.0 °F45.0 °F35 %30.08 in6.0 miNE (50°)9.2 mph
7:00 PM64.4 °F46.4 °F52 %30.12 inENE (60°)6.9 mphClear
8:00 PM62.6 °F44.6 °F52 %30.12 inNE (50°)6.9 mphClear
9:00 PM63.0 °F45.0 °F40 %30.13 in6.0 miENE (60°)9.2 mph
9:00 PM62.6 °F44.6 °F52 %30.15 inENE (60°)9.2 mphClear
10:00 PM60.8 °F42.8 °F52 %30.18 inENE (60°)11.5 mphClear
11:00 PM59.0 °F41.0 °F51 %30.18 inENE (70°)11.5 mphClear
Hourly data recorded from OEGS, located miles away from Buraydah, Saudi Arabia







STORIES FROM OUR PARTNERS